Language selection

My Weather Profile Weather Topics  | 

Western Lake Superior: Past 24 Hour Conditions

 

Caribou Island

11:00 AM EDT 22 September 2021
Disclaimer

This table is a summary of hourly weather conditions for the past 24 hours.
Please note that these observations might not always be representative of weather conditions over their associated marine area.

Date / Time
(EDT)
Wind(knots) Conditions Visibility(km) Pressure(kPa) Air tempC) Relative humidity(%) Dew pointC)
22 September 2021
11:00 NE 13 gust 18 N/A N/A 102.7 11 73 6
10:00 NE 15 N/A N/A 102.6 11 69 6
9:00 NNE 10 gust 16 N/A N/A 102.6 11 73 6
8:00 NNE 10 gust 17 N/A N/A 102.5 10 72 6
7:00 NNE 10 N/A N/A 102.4 10 75 6
6:00 NNE 10 N/A N/A 102.5 11 72 6
5:00 NNE 9 N/A N/A 102.4 11 73 6
4:00 NNE 10 N/A N/A 102.5 11 74 7
3:00 NE 11 N/A N/A 102.4 11 81 8
2:00 NNE 11 N/A N/A 102.4 12 78 8
1:00 NNE 9 N/A N/A 102.4 12 82 9
0:00 NNE 9 N/A N/A 102.4 12 78 8
21 September 2021
23:00 NNE 8 N/A N/A 102.4 12 80 9
22:00 NNW 9 N/A N/A 102.3 12 87 10
21:00 NW 10 gust 17 N/A N/A 102.3 13 83 10
20:00 NW 11 gust 16 N/A N/A 102.2 13 85 10
19:00 NNW 12 N/A N/A 102.1 14 78 11
18:00 NW 11 gust 17 N/A N/A 102.0 15 76 11
17:00 NW 12 gust 21 N/A N/A 101.9 15 74 11
16:00 NNW 12 gust 21 N/A N/A 101.8 15 76 11
15:00 NW 14 gust 22 N/A N/A 101.7 15 80 11
14:00 NW 18 gust 23 N/A N/A 101.6 14 82 11
13:00 NW 18 gust 26 N/A N/A 101.4 14 88 12
12:00 NW 20 gust 26 N/A N/A 101.3 13 91 12
11:00 NW 21 gust 28 N/A N/A 101.2 13 93 12

Zoom-in to make a selection

Map of Great Lakes - Lake Superior marine weather areas Mid Superior - 45001 East Superior - 45004 West Superior - 45006 Slate Island - 45136 Lake Of the Woods - 45148 Kenora Airport Royal Island Armstrong Airport Caribou Island Marathon Airport Pukaskwa National Park Thunder Bay Airport Welcome Island Little Flatland Island Sault Ste. Marie Airport Wawa Airport
Legend:
buoy Buoy
land station Land Station

Great Lakes - Lake Superior Area

Another Region

What we are doing

Date modified: